Time,TemperatureF,DewpointF,PressureIn,WindDirection,WindDirectionDegrees,WindSpeedMPH,WindSpeedGustMPH,Humidity,HourlyPrecipIn,Conditions,Clouds,dailyrainin,SoftwareType,DateUTC
2013-01-29 00:10:00,73.5,68.0,30.21,ESE,108,1.0,-999.0,82,-99.99,,,0.00,weatherlink.com 1.10,2013-01-29 05:10:00,
2013-01-29 00:26:00,73.6,68.0,30.21,SE,130,2.0,-999.0,82,-99.99,,,0.00,weatherlink.com 1.10,2013-01-29 05:26:00,
2013-01-29 00:41:00,73.5,67.0,30.21,SE,137,0.0,-999.0,81,-99.99,,,0.00,weatherlink.com 1.10,2013-01-29 05:41:00,
2013-01-29 00:56:00,73.6,67.0,30.21,SE,134,0.0,-999.0,80,-99.99,,,0.00,weatherlink.com 1.10,2013-01-29 05:56:00,
2013-01-29 01:11:00,73.6,67.0,30.20,ESE,109,5.0,-999.0,79,-99.99,,,0.00,weatherlink.com 1.10,2013-01-29 06:11:00,
2013-01-29 01:26:00,73.3,66.0,30.20,SE,126,1.0,-999.0,79,-99.99,,,0.00,weatherlink.com 1.10,2013-01-29 06:26:00,
2013-01-29 01:41:00,73.1,66.0,30.20,ESE,106,0.0,-999.0,79,-99.99,,,0.00,weatherlink.com 1.10,2013-01-29 06:41:00,
2013-01-29 01:56:00,72.8,66.0,30.19,South,173,7.0,-999.0,79,-99.99,,,0.00,weatherlink.com 1.10,2013-01-29 06:56:00,
2013-01-29 02:11:00,72.7,66.0,30.18,SSE,148,0.0,-999.0,79,-99.99,,,0.00,weatherlink.com 1.10,2013-01-29 07:11:00,
2013-01-29 02:26:00,72.4,66.0,30.18,SE,133,0.0,-999.0,80,-99.99,,,0.00,weatherlink.com 1.10,2013-01-29 07:26:00,
2013-01-29 02:41:00,72.3,66.0,30.18,ESE,122,0.0,-999.0,81,-99.99,,,0.00,weatherlink.com 1.10,2013-01-29 07:41:00,
2013-01-29 02:56:00,71.8,66.0,30.18,SSE,158,0.0,-999.0,82,-99.99,,,0.00,weatherlink.com 1.10,2013-01-29 07:56:00,
2013-01-29 03:11:00,71.9,66.0,30.18,SE,130,0.0,-999.0,82,-99.99,,,0.00,weatherlink.com 1.10,2013-01-29 08:11:00,
2013-01-29 03:26:00,71.8,66.0,30.18,ESE,118,0.0,-999.0,83,-99.99,,,0.00,weatherlink.com 1.10,2013-01-29 08:26:00,
2013-01-29 03:41:00,71.3,66.0,30.18,SE,144,0.0,-999.0,83,-99.99,,,0.00,weatherlink.com 1.10,2013-01-29 08:41:00,
2013-01-29 03:56:00,70.9,66.0,30.18,SE,144,0.0,-999.0,84,-99.99,,,0.00,weatherlink.com 1.10,2013-01-29 08:56:00,
2013-01-29 04:11:00,70.6,66.0,30.18,SSE,147,0.0,-999.0,85,-99.99,,,0.00,weatherlink.com 1.10,2013-01-29 09:11:00,
2013-01-29 04:26:00,70.3,66.0,30.17,SSW,195,0.0,-999.0,86,-99.99,,,0.00,weatherlink.com 1.10,2013-01-29 09:26:00,
2013-01-29 04:41:00,69.9,66.0,30.17,South,169,0.0,-999.0,87,-99.99,,,0.00,weatherlink.com 1.10,2013-01-29 09:41:00,
2013-01-29 04:56:00,69.8,66.0,30.17,SSE,150,1.0,-999.0,87,-99.99,,,0.00,weatherlink.com 1.10,2013-01-29 09:56:00,
2013-01-29 05:11:00,69.7,66.0,30.17,SE,145,0.0,-999.0,87,-99.99,,,0.00,weatherlink.com 1.10,2013-01-29 10:11:00,
2013-01-29 05:26:00,69.4,65.0,30.18,SE,146,0.0,-999.0,87,-99.99,,,0.00,weatherlink.com 1.10,2013-01-29 10:26:00,
2013-01-29 05:41:00,68.6,65.0,30.18,SE,146,0.0,-999.0,89,-99.99,,,0.00,weatherlink.com 1.10,2013-01-29 10:41:00,
2013-01-29 05:56:00,68.3,66.0,30.18,SE,145,0.0,-999.0,91,-99.99,,,0.00,weatherlink.com 1.10,2013-01-29 10:56:00,
2013-01-29 06:11:00,68.0,65.0,30.18,SE,145,0.0,-999.0,91,-99.99,,,0.00,weatherlink.com 1.10,2013-01-29 11:11:00,
2013-01-29 06:26:00,68.1,65.0,30.19,SE,145,0.0,-999.0,91,-99.99,,,0.00,weatherlink.com 1.10,2013-01-29 11:26:00,
2013-01-29 06:41:00,67.7,65.0,30.19,SE,146,0.0,-999.0,92,-99.99,,,0.00,weatherlink.com 1.10,2013-01-29 11:41:00,
2013-01-29 06:56:00,67.9,66.0,30.20,SE,146,0.0,-999.0,92,-99.99,,,0.00,weatherlink.com 1.10,2013-01-29 11:56:00,
2013-01-29 07:11:00,67.9,66.0,30.20,SE,146,0.0,-999.0,92,-99.99,,,0.00,weatherlink.com 1.10,2013-01-29 12:11:00,
2013-01-29 07:26:00,67.7,65.0,30.20,SE,146,0.0,-999.0,92,-99.99,,,0.00,weatherlink.com 1.10,2013-01-29 12:26:00,
2013-01-29 07:41:00,68.4,66.0,30.20,SE,141,0.0,-999.0,93,-99.99,,,0.00,weatherlink.com 1.10,2013-01-29 12:41:00,
2013-01-29 07:56:00,70.6,68.0,30.20,SSE,159,0.0,-999.0,90,-99.99,,,0.00,weatherlink.com 1.10,2013-01-29 12:56:00,
2013-01-29 08:11:00,72.4,68.0,30.21,SE,145,0.0,-999.0,86,-99.99,,,0.00,weatherlink.com 1.10,2013-01-29 13:11:00,
2013-01-29 08:26:00,74.1,69.0,30.21,SE,134,0.0,-999.0,83,-99.99,,,0.00,weatherlink.com 1.10,2013-01-29 13:26:00,
2013-01-29 08:41:00,74.5,69.0,30.21,SE,146,0.0,-999.0,82,-99.99,,,0.00,weatherlink.com 1.10,2013-01-29 13:41:00,
2013-01-29 08:56:00,74.8,69.0,30.21,ESE,117,2.0,-999.0,83,-99.99,,,0.00,weatherlink.com 1.10,2013-01-29 13:56:00,
2013-01-29 09:11:00,75.6,69.0,30.21,SE,146,4.0,-999.0,81,-99.99,,,0.00,weatherlink.com 1.10,2013-01-29 14:11:00,
2013-01-29 09:26:00,76.0,69.0,30.21,ESE,115,2.0,-999.0,80,-99.99,,,0.00,weatherlink.com 1.10,2013-01-29 14:26:00,
2013-01-29 09:41:00,75.1,69.0,30.21,SE,141,4.0,-999.0,82,-99.99,,,0.00,weatherlink.com 1.10,2013-01-29 14:41:00,
2013-01-29 09:56:00,75.3,70.0,30.21,South,171,5.0,-999.0,82,-99.99,,,0.00,weatherlink.com 1.10,2013-01-29 14:56:00,
2013-01-29 10:11:00,75.8,69.0,30.21,SSE,161,8.0,-999.0,80,-99.99,,,0.00,weatherlink.com 1.10,2013-01-29 15:11:00,
2013-01-29 10:26:00,75.8,70.0,30.21,South,175,6.0,-999.0,81,-99.99,,,0.00,weatherlink.com 1.10,2013-01-29 15:26:00,
2013-01-29 10:41:00,76.0,69.0,30.21,SSE,161,5.0,-999.0,80,-99.99,,,0.00,weatherlink.com 1.10,2013-01-29 15:41:00,
2013-01-29 10:56:00,76.5,70.0,30.21,ESE,119,4.0,-999.0,79,-99.99,,,0.00,weatherlink.com 1.10,2013-01-29 15:56:00,
2013-01-29 11:11:00,76.7,70.0,30.21,SE,132,7.0,-999.0,79,-99.99,,,0.00,weatherlink.com 1.10,2013-01-29 16:11:00,
2013-01-29 11:26:00,76.6,69.0,30.20,SSE,161,2.0,-999.0,78,-99.99,,,0.00,weatherlink.com 1.10,2013-01-29 16:26:00,
2013-01-29 11:41:00,76.8,69.0,30.20,SSE,148,4.0,-999.0,78,-99.99,,,0.00,weatherlink.com 1.10,2013-01-29 16:41:00,
2013-01-29 11:56:00,77.3,69.0,30.20,SW,233,6.0,-999.0,75,-99.99,,,0.00,weatherlink.com 1.10,2013-01-29 16:56:00,
2013-01-29 12:11:00,76.9,69.0,30.19,SSW,203,5.0,-999.0,76,-99.99,,,0.00,weatherlink.com 1.10,2013-01-29 17:11:00,
2013-01-29 12:27:00,76.7,69.0,30.18,ESE,106,7.0,-999.0,77,-99.99,,,0.00,weatherlink.com 1.10,2013-01-29 17:27:00,
2013-01-29 12:42:00,77.3,69.0,30.17,SSW,213,3.0,-999.0,76,-99.99,,,0.00,weatherlink.com 1.10,2013-01-29 17:42:00,
2013-01-29 12:57:00,78.3,70.0,30.16,SSW,194,5.0,-999.0,75,-99.99,,,0.00,weatherlink.com 1.10,2013-01-29 17:57:00,
2013-01-29 13:12:00,78.2,69.0,30.15,South,178,1.0,-999.0,73,-99.99,,,0.00,weatherlink.com 1.10,2013-01-29 18:12:00,
2013-01-29 13:27:00,78.3,69.0,30.14,ESE,115,7.0,-999.0,74,-99.99,,,0.00,weatherlink.com 1.10,2013-01-29 18:27:00,
2013-01-29 13:42:00,78.6,69.0,30.14,South,183,3.0,-999.0,72,-99.99,,,0.00,weatherlink.com 1.10,2013-01-29 18:42:00,
2013-01-29 13:57:00,79.1,69.0,30.14,ESE,105,4.0,-999.0,72,-99.99,,,0.00,weatherlink.com 1.10,2013-01-29 18:57:00,
2013-01-29 14:12:00,77.9,69.0,30.13,East,94,6.0,-999.0,74,-99.99,,,0.00,weatherlink.com 1.10,2013-01-29 19:12:00,
2013-01-29 14:42:00,77.9,69.0,30.13,SSE,150,4.0,-999.0,74,-99.99,,,0.00,weatherlink.com 1.10,2013-01-29 19:42:00,
2013-01-29 14:57:00,76.9,68.0,30.12,ESE,105,6.0,-999.0,74,-99.99,,,0.00,weatherlink.com 1.10,2013-01-29 19:57:00,
2013-01-29 15:12:00,77.4,69.0,30.11,ESE,119,2.0,-999.0,75,-99.99,,,0.00,weatherlink.com 1.10,2013-01-29 20:12:00,
2013-01-29 15:27:00,78.4,69.0,30.11,SSW,192,7.0,-999.0,73,-99.99,,,0.00,weatherlink.com 1.10,2013-01-29 20:27:00,
2013-01-29 15:42:00,78.3,69.0,30.11,SSW,213,7.0,-999.0,73,-99.99,,,0.00,weatherlink.com 1.10,2013-01-29 20:42:00,
2013-01-29 15:57:00,78.4,69.0,30.11,SSE,155,7.0,-999.0,72,-99.99,,,0.00,weatherlink.com 1.10,2013-01-29 20:57:00,
2013-01-29 16:12:00,78.1,68.0,30.12,SSW,192,3.0,-999.0,72,-99.99,,,0.00,weatherlink.com 1.10,2013-01-29 21:12:00,
2013-01-29 16:27:00,78.1,69.0,30.12,South,175,6.0,-999.0,74,-99.99,,,0.00,weatherlink.com 1.10,2013-01-29 21:27:00,
2013-01-29 16:42:00,77.5,69.0,30.13,ENE,67,7.0,-999.0,75,-99.99,,,0.00,weatherlink.com 1.10,2013-01-29 21:42:00,
2013-01-29 16:57:00,76.6,68.0,30.13,SE,130,7.0,-999.0,75,-99.99,,,0.00,weatherlink.com 1.10,2013-01-29 21:57:00,
2013-01-29 17:12:00,76.0,68.0,30.13,SSE,167,2.0,-999.0,75,-99.99,,,0.00,weatherlink.com 1.10,2013-01-29 22:12:00,
2013-01-29 17:27:00,75.6,67.0,30.13,SE,136,6.0,-999.0,75,-99.99,,,0.00,weatherlink.com 1.10,2013-01-29 22:27:00,
2013-01-29 17:42:00,74.9,67.0,30.14,SSE,149,9.0,-999.0,77,-99.99,,,0.00,weatherlink.com 1.10,2013-01-29 22:42:00,
2013-01-29 17:57:00,74.5,67.0,30.14,SE,128,2.0,-999.0,78,-99.99,,,0.00,weatherlink.com 1.10,2013-01-29 22:57:00,
2013-01-29 18:12:00,74.0,66.0,30.14,South,175,2.0,-999.0,77,-99.99,,,0.00,weatherlink.com 1.10,2013-01-29 23:12:00,
2013-01-29 18:27:00,73.7,66.0,30.13,SE,144,4.0,-999.0,77,-99.99,,,0.00,weatherlink.com 1.10,2013-01-29 23:27:00,
2013-01-29 18:42:00,73.7,66.0,30.13,SSE,163,4.0,-999.0,77,-99.99,,,0.00,weatherlink.com 1.10,2013-01-29 23:42:00,
2013-01-29 18:57:00,73.6,67.0,30.13,South,184,3.0,-999.0,79,-99.99,,,0.00,weatherlink.com 1.10,2013-01-29 23:57:00,
2013-01-29 19:12:00,73.3,66.0,30.13,SSE,150,1.0,-999.0,78,-99.99,,,0.00,weatherlink.com 1.10,2013-01-30 00:12:00,
2013-01-29 19:28:00,73.1,66.0,30.13,South,171,4.0,-999.0,77,-99.99,,,0.00,weatherlink.com 1.10,2013-01-30 00:28:00,
2013-01-29 19:42:00,72.9,66.0,30.14,SSE,164,0.0,-999.0,78,-99.99,,,0.00,weatherlink.com 1.10,2013-01-30 00:42:00,
2013-01-29 19:57:00,72.6,65.0,30.14,SE,141,2.0,-999.0,78,-99.99,,,0.00,weatherlink.com 1.10,2013-01-30 00:57:00,
2013-01-29 20:12:00,72.7,66.0,30.14,SSE,160,0.0,-999.0,80,-99.99,,,0.00,weatherlink.com 1.10,2013-01-30 01:12:00,
2013-01-29 20:27:00,72.5,66.0,30.14,SSE,156,0.0,-999.0,81,-99.99,,,0.00,weatherlink.com 1.10,2013-01-30 01:27:00,
2013-01-29 20:42:00,72.2,66.0,30.14,SE,126,1.0,-999.0,82,-99.99,,,0.00,weatherlink.com 1.10,2013-01-30 01:42:00,
2013-01-29 20:57:00,72.0,67.0,30.14,SE,129,1.0,-999.0,83,-99.99,,,0.00,weatherlink.com 1.10,2013-01-30 01:57:00,
2013-01-29 21:12:00,71.9,67.0,30.14,SE,130,1.0,-999.0,84,-99.99,,,0.00,weatherlink.com 1.10,2013-01-30 02:12:00,
2013-01-29 21:27:00,72.0,67.0,30.14,SE,126,1.0,-999.0,84,-99.99,,,0.00,weatherlink.com 1.10,2013-01-30 02:27:00,
2013-01-29 21:42:00,72.0,67.0,30.14,SE,126,0.0,-999.0,83,-99.99,,,0.00,weatherlink.com 1.10,2013-01-30 02:42:00,
2013-01-29 21:57:00,72.1,67.0,30.14,SE,136,0.0,-999.0,83,-99.99,,,0.00,weatherlink.com 1.10,2013-01-30 02:57:00,
2013-01-29 22:12:00,71.9,67.0,30.14,East,88,0.0,-999.0,84,-99.99,,,0.00,weatherlink.com 1.10,2013-01-30 03:12:00,
2013-01-29 22:27:00,71.8,66.0,30.14,ESE,111,4.0,-999.0,83,-99.99,,,0.00,weatherlink.com 1.10,2013-01-30 03:27:00,
2013-01-29 22:42:00,71.9,66.0,30.13,SE,142,5.0,-999.0,82,-99.99,,,0.00,weatherlink.com 1.10,2013-01-30 03:42:00,
2013-01-29 22:57:00,71.9,66.0,30.12,SE,130,6.0,-999.0,82,-99.99,,,0.00,weatherlink.com 1.10,2013-01-30 03:57:00,
2013-01-29 23:12:00,72.0,66.0,30.12,SSE,148,2.0,-999.0,81,-99.99,,,0.00,weatherlink.com 1.10,2013-01-30 04:12:00,
2013-01-29 23:27:00,71.8,66.0,30.12,SSE,156,2.0,-999.0,81,-99.99,,,0.00,weatherlink.com 1.10,2013-01-30 04:27:00,
2013-01-29 23:42:00,71.9,66.0,30.11,ESE,119,6.0,-999.0,81,-99.99,,,0.00,weatherlink.com 1.10,2013-01-30 04:42:00,
2013-01-29 23:57:00,71.9,65.0,30.11,SE,142,4.0,-999.0,80,-99.99,,,0.00,weatherlink.com 1.10,2013-01-30 04:57:00,